Regional Weather Roundup
Issued by NWS Upton, NY

Current Version | Previous Version | Text Only | Print | Product List | Glossary Off
Versions: 1 2 3 4 5 6 7 8 9 10 11 12 13 14 15 16 17 18 19 20 21 22 23 24 25 26 27 28 29 30 31 32 33 34 35 36 37 38 39 40 41 42 43 44 45 46 47 48 49 50
000 ASUS41 KOKX 251709 RWROKX REGIONAL WEATHER ROUNDUP NATIONAL WEATHER SERVICE NEW YORK NY 100 PM EDT SUN JUN 25 2017 NOTE: "FAIR" INDICATES FEW OR NO CLOUDS BELOW 12,000 FEET WITH NO SIGNIFICANT WEATHER AND/OR OBSTRUCTIONS TO VISIBILITY. NYZ071-072-176-178-NJZ106-104-251800- NEW YORK CITY METRO AREA CITY SKY/WX TMP DP RH WIND PRES REMARKS Central Park MOSUNNY 79 56 45 VRB5 29.99F Bronx Bot Gard N/A 82 52 34 SW6 29.97F LaGuardia APRT PTSUNNY 83 56 39 SW10 29.96F Kennedy INTL PTSUNNY 80 60 50 S10 29.99F Breezy Point N/A 73 N/A N/A S8 N/A Newark/Liberty PTSUNNY 84 53 34 SW15G24 29.96F Teterboro MOSUNNY 83 54 36 SW14 29.95F $$ NYZ177-179-078>081-251800- LONG ISLAND NEW YORK CITY SKY/WX TMP DP RH WIND PRES REMARKS Jones Beach N/A 75 N/A N/A S8 N/A Matinecock PT NOT AVBL Farmingdale NOT AVBL MacArthur/ISP PTSUNNY 80 59 48 S14 29.97F Shirley SUNNY 79 60 52 S13 29.98F Mt Sinai Harb N/A 79 N/A N/A NW3 N/A Westhampton SUNNY 79 57 46 SW13 29.99F East Hampton FAIR 78 59 52 S7 29.97S Montauk NOT AVBL $$ NYZ052-065-067-251800- HUDSON VALLEY CITY SKY/WX TMP DP RH WIND PRES REMARKS White Plains MOSUNNY 81 52 36 SW8 29.97F Larchmont Harb N/A 73 N/A N/A S9 N/A Croton O-T Hud N/A 79 N/A N/A SW5 N/A Newburgh PTSUNNY 77 57 50 W14 29.97F Montgomery PTSUNNY 78 57 48 SW7 29.96F Poughkeepsie MOSUNNY 80 54 40 SW8 29.94F Albany PTSUNNY 78 55 44 W10 29.94F $$ NJZ001-105-106-008-010-013-015-019>022-104-251800- NEW JERSEY CITY SKY/WX TMP DP RH WIND PRES REMARKS Newark/Liberty PTSUNNY 84 53 34 SW15G24 29.96F Teterboro MOSUNNY 83 54 36 SW14 29.95F Caldwell PTSUNNY 82 55 39 VRB7 29.97F Somerville PTSUNNY 82 59 45 CALM 29.96F Linden FAIR 83 52 33 W9 29.97F Perth Amboy N/A 79 N/A N/A W8G14 N/A Sussex MOSUNNY 76 57 51 SW6 29.96F Andover N/A 79 54 41 SW10G20 29.97F Trenton MOSUNNY 81 57 43 W6 29.98F Millville MOSUNNY 83 63 50 CALM 30.00F Atlantic City PTSUNNY 83 58 42 S8 29.99F Wrightstown MOSUNNY 84 59 42 W12 29.98F Toms River PTSUNNY 86 55 34 W7 29.99F Belmar PTSUNNY 79 59 50 SE8 29.99F $$ PAZ047>061-062-071-251800- EASTERN PENNSYLVANIA CITY SKY/WX TMP DP RH WIND PRES REMARKS Philadelphia PTSUNNY 84 56 38 W14G20 29.99F Allentown CLOUDY 77 57 50 W6 29.99F Scranton SUNNY 78 53 41 SW13G21 29.99F $$ CTZ002-004>006-009-010-012-RIZ004-006-007-MAZ004-011-015-251800- SOUTHERN NEW ENGLAND IN CT CITY SKY/WX TMP DP RH WIND PRES REMARKS Bradley INTL PTSUNNY 81 54 39 SW12 29.94F Hartford PTSUNNY 80 55 42 S10 29.93F Danbury MOSUNNY 78 54 43 SW8 29.97F Wtrbury/Oxford PTSUNNY 77 54 44 VRB6 29.99F Bridgeport SUNNY 82 54 37 SW9 29.96F Meriden PTSUNNY 79 58 48 S8 29.95F New Haven NOT AVBL Chester FAIR 79 55 44 S12 29.97F Groton MOSUNNY 75 59 57 SW10 29.95F Wilimantic SUNNY 82 54 37 W8 29.95F IN RI CITY SKY/WX TMP DP RH WIND PRES REMARKS Providence MOSUNNY 81 54 39 S10G16 29.94F Block Island SUNNY 78 56 46 SW10 29.98F Westerly SUNNY 79 58 48 SW12 29.96F IN MA CITY SKY/WX TMP DP RH WIND PRES REMARKS Boston MOSUNNY 80 53 39 SW8 29.91F Worcester SUNNY 77 50 38 W13 29.96F Westfield MOSUNNY 82 53 36 W8 29.93F Provincetown SUNNY 78 55 44 VRB5 29.94F Nantucket SUNNY 75 60 59 SW13 29.96S $$ ANZ330-335-338-340-345-350-353-355-251800- COASTAL MARINE OBSERVATIONS STATION/POSITION TIME SKY/WX TEMP WIND PRES VSBY WAVE AIR SEA DIR/SP/G HT/PER (UTC) (F) (DEG/KT/KT) (MB) (MI) (FT/S) NY HARB ENTRANCE 1650 72 71 170/ 6/ 6 1015.4 3/ 7 20 S FIRE ISLAND 1650 73 73 160/ 4/ 6 1015.2 3/ 7 GREAT SOUTH BAY 1630 73 77 200/ 10/ 12 N/A 23 SSW MONTAUK P 1550 70 67 1015.9 4/ 8 15 E BARNEGAT LI 1630 70 N/A 3/ 8 HUDSON CANYON 1650 69 68 30/ 4/ 6 1015.5 3/ 7 KINGS POINT 1630 78 66 230/ 2/ 3 1014.7 EXECUTION ROCKS 1645 77 170/ 6/ 8 N/A CENTRAL LI SOUND NOT AVBL EASTERN LI SOUND NOT AVBL ROBBINS REEF 1630 160/ 16/ 16 1015.5 $$ >>>>>>>>>>>>>>>>>>>>>>>>>>>> KEY <<<<<<<<<<<<<<<<<<<<<<<<<<< > < > SKY/WX - Sky Condition/Present Weather < > TMP - Temperature in Fahrenheit < > DP - Dew Point in Fahrenheit < > RH - Relative Humidity in Percent < > WIND - Direction (from) and Speed in MPH < > PRES - Mean Sea Level Pressure (inches of Hg) < > WCI - Wind Chill Index < > VSB - VISIBILITY IN MILES < > HX - HEAT INDEX < > TC - TEMPERATURE IN CELSIUS < > VRB - VARIABLE WIND DIRECTION < > < >>>>>>>>>>>>>>>>>>>>>>>>>>>> KEY <<<<<<<<<<<<<<<<<<<<<<<<<<<

USA.gov is the U.S. government's official web portal to all federal, state and local government web resources and services.